Time,TemperatureF,DewpointF,PressureIn,WindDirection,WindDirectionDegrees,WindSpeedMPH,WindSpeedGustMPH,Humidity,HourlyPrecipIn,Conditions,Clouds,dailyrainin,SolarRadiationWatts/m^2,SoftwareType,DateUTC
2013-06-06 00:02:00,55.0,43.0,-100.00,West,273,3.0,11.0,65,-99.99,,,0.00,0.120000,,2013-06-06 06:02:00,
2013-06-06 00:12:00,55.0,43.0,-100.00,West,273,3.0,11.0,65,-99.99,,,0.00,0.120000,,2013-06-06 06:12:00,
2013-06-06 00:32:00,53.0,45.0,-100.00,WNW,301,2.0,4.0,72,-99.99,,,-99.99,0.120000,,2013-06-06 06:32:00,
2013-06-06 00:42:00,53.0,45.0,-100.00,WNW,301,2.0,4.0,72,-99.99,,,-99.99,0.120000,,2013-06-06 06:42:00,
2013-06-06 00:52:00,53.0,45.0,-100.00,WNW,301,2.0,4.0,72,-99.99,,,-99.99,0.120000,,2013-06-06 06:52:00,
2013-06-06 01:02:00,53.0,45.0,-100.00,WNW,301,2.0,4.0,72,-99.99,,,-99.99,0.120000,,2013-06-06 07:02:00,
2013-06-06 01:12:00,53.0,45.0,-100.00,WNW,301,2.0,4.0,72,-99.99,,,-99.99,0.120000,,2013-06-06 07:12:00,
2013-06-06 01:42:00,51.0,46.0,-100.00,NNW,345,1.0,3.0,83,-99.99,,,-99.99,0.120000,,2013-06-06 07:42:00,
2013-06-06 01:52:00,51.0,46.0,-100.00,NNW,345,1.0,3.0,83,-99.99,,,-99.99,0.120000,,2013-06-06 07:52:00,
2013-06-06 02:02:00,51.0,46.0,-100.00,NNW,345,1.0,3.0,83,-99.99,,,-99.99,0.120000,,2013-06-06 08:02:00,
2013-06-06 02:12:00,51.0,46.0,-100.00,NNW,345,1.0,3.0,83,-99.99,,,-99.99,0.120000,,2013-06-06 08:12:00,
2013-06-06 02:32:00,52.0,46.0,-100.00,West,267,2.0,4.0,80,-99.99,,,-99.99,0.120000,,2013-06-06 08:32:00,
2013-06-06 02:42:00,52.0,46.0,-100.00,West,267,2.0,4.0,80,-99.99,,,-99.99,0.120000,,2013-06-06 08:42:00,
2013-06-06 02:52:00,52.0,46.0,-100.00,West,267,2.0,4.0,80,-99.99,,,-99.99,0.120000,,2013-06-06 08:52:00,
2013-06-06 03:02:00,52.0,46.0,-100.00,West,267,2.0,4.0,80,-99.99,,,-99.99,0.120000,,2013-06-06 09:02:00,
2013-06-06 03:12:00,52.0,46.0,-100.00,West,267,2.0,4.0,80,-99.99,,,-99.99,0.120000,,2013-06-06 09:12:00,
2013-06-06 03:43:00,50.0,46.0,-100.00,WSW,252,2.0,4.0,86,-99.99,,,-99.99,0.120000,,2013-06-06 09:43:00,
2013-06-06 03:53:00,50.0,46.0,-100.00,WSW,252,2.0,4.0,86,-99.99,,,-99.99,0.120000,,2013-06-06 09:53:00,
2013-06-06 04:02:00,50.0,46.0,-100.00,WSW,252,2.0,4.0,86,-99.99,,,-99.99,0.120000,,2013-06-06 10:02:00,
2013-06-06 04:12:00,50.0,46.0,-100.00,WSW,252,2.0,4.0,86,-99.99,,,-99.99,0.120000,,2013-06-06 10:12:00,
2013-06-06 04:33:00,49.0,46.0,-100.00,NNW,335,1.0,2.0,90,-99.99,,,0.00,0.120000,,2013-06-06 10:33:00,
2013-06-06 04:42:00,49.0,46.0,-100.00,NNW,335,1.0,2.0,90,-99.99,,,0.00,0.120000,,2013-06-06 10:42:00,
2013-06-06 04:53:00,49.0,46.0,-100.00,NNW,335,1.0,2.0,90,-99.99,,,0.00,0.120000,,2013-06-06 10:53:00,
2013-06-06 05:02:00,49.0,46.0,-100.00,NNW,335,1.0,2.0,90,-99.99,,,0.00,0.120000,,2013-06-06 11:02:00,
2013-06-06 05:12:00,49.0,46.0,-100.00,NNW,335,1.0,2.0,90,-99.99,,,0.00,0.120000,,2013-06-06 11:12:00,
2013-06-06 05:42:00,46.0,43.0,-100.00,SSW,195,4.0,5.0,87,-99.99,,,0.00,0.230000,,2013-06-06 11:42:00,
2013-06-06 05:52:00,46.0,43.0,-100.00,SSW,195,4.0,5.0,87,-99.99,,,0.00,0.230000,,2013-06-06 11:52:00,
2013-06-06 06:02:00,46.0,43.0,-100.00,SSW,195,4.0,5.0,87,-99.99,,,0.00,0.230000,,2013-06-06 12:02:00,
2013-06-06 06:12:00,46.0,43.0,-100.00,SSW,195,4.0,5.0,87,-99.99,,,0.00,0.230000,,2013-06-06 12:12:00,
2013-06-06 06:42:00,46.0,43.0,-100.00,South,184,3.0,4.0,91,-99.99,,,0.00,22.900000,,2013-06-06 12:42:00,
2013-06-06 06:53:00,46.0,43.0,-100.00,South,184,3.0,4.0,91,-99.99,,,0.00,22.900000,,2013-06-06 12:53:00,
2013-06-06 07:03:00,46.0,43.0,-100.00,South,184,3.0,4.0,91,-99.99,,,0.00,22.900000,,2013-06-06 13:03:00,
2013-06-06 07:12:00,46.0,43.0,-100.00,South,184,3.0,4.0,91,-99.99,,,0.00,22.900000,,2013-06-06 13:12:00,
2013-06-06 07:42:00,49.0,44.0,-100.00,South,179,5.0,6.0,81,-99.99,,,0.00,128.190002,,2013-06-06 13:42:00,
2013-06-06 07:53:00,49.0,44.0,-100.00,South,179,5.0,6.0,81,-99.99,,,0.00,128.190002,,2013-06-06 13:53:00,
2013-06-06 08:02:00,49.0,44.0,-100.00,South,179,5.0,6.0,81,-99.99,,,0.00,128.190002,,2013-06-06 14:02:00,
2013-06-06 08:12:00,49.0,44.0,-100.00,South,179,5.0,6.0,81,-99.99,,,0.00,128.190002,,2013-06-06 14:12:00,
2013-06-06 08:32:00,55.0,44.0,-100.00,South,186,6.0,8.0,66,-99.99,,,0.00,346.570007,,2013-06-06 14:32:00,
2013-06-06 08:42:00,55.0,44.0,-100.00,South,186,6.0,8.0,66,-99.99,,,0.00,346.570007,,2013-06-06 14:42:00,
2013-06-06 08:53:00,55.0,44.0,-100.00,South,186,6.0,8.0,66,-99.99,,,0.00,346.570007,,2013-06-06 14:53:00,
2013-06-06 09:02:00,55.0,44.0,-100.00,South,186,6.0,8.0,66,-99.99,,,0.00,346.570007,,2013-06-06 15:02:00,
2013-06-06 09:12:00,55.0,44.0,-100.00,South,186,6.0,8.0,66,-99.99,,,0.00,346.570007,,2013-06-06 15:12:00,
2013-06-06 10:33:00,65.0,42.0,-100.00,South,188,4.0,7.0,43,-99.99,,,0.00,626.080017,,2013-06-06 16:33:00,
2013-06-06 10:43:00,65.0,42.0,-100.00,South,188,4.0,7.0,43,-99.99,,,0.00,626.080017,,2013-06-06 16:43:00,
2013-06-06 10:53:00,65.0,42.0,-100.00,South,188,4.0,7.0,43,-99.99,,,0.00,626.080017,,2013-06-06 16:53:00,
2013-06-06 11:03:00,65.0,42.0,-100.00,South,188,4.0,7.0,43,-99.99,,,0.00,626.080017,,2013-06-06 17:03:00,
2013-06-06 11:12:00,65.0,42.0,-100.00,South,188,4.0,7.0,43,-99.99,,,0.00,626.080017,,2013-06-06 17:12:00,
2013-06-06 11:42:00,68.0,40.0,-100.00,NE,54,4.0,9.0,35,-99.99,,,-99.99,778.559998,,2013-06-06 17:42:00,
2013-06-06 11:53:00,68.0,40.0,-100.00,NE,54,4.0,9.0,35,-99.99,,,-99.99,778.559998,,2013-06-06 17:53:00,
2013-06-06 12:03:00,68.0,40.0,-100.00,NE,54,4.0,9.0,35,-99.99,,,-99.99,778.559998,,2013-06-06 18:03:00,
2013-06-06 12:12:00,68.0,40.0,-100.00,NE,54,4.0,9.0,35,-99.99,,,-99.99,778.559998,,2013-06-06 18:12:00,
2013-06-06 12:43:00,69.0,40.0,-100.00,NNE,30,5.0,10.0,33,-99.99,,,0.00,943.710022,,2013-06-06 18:43:00,
2013-06-06 12:53:00,69.0,40.0,-100.00,NNE,30,5.0,10.0,33,-99.99,,,0.00,943.710022,,2013-06-06 18:53:00,
2013-06-06 13:02:00,69.0,40.0,-100.00,NNE,30,5.0,10.0,33,-99.99,,,0.00,943.710022,,2013-06-06 19:02:00,
2013-06-06 13:12:00,69.0,40.0,-100.00,NNE,30,5.0,10.0,33,-99.99,,,0.00,943.710022,,2013-06-06 19:12:00,
2013-06-06 13:42:00,72.0,40.0,-100.00,ESE,112,4.0,10.0,30,-99.99,,,0.00,1012.280029,,2013-06-06 19:42:00,
2013-06-06 13:53:00,72.0,40.0,-100.00,ESE,112,4.0,10.0,30,-99.99,,,0.00,1012.280029,,2013-06-06 19:53:00,
2013-06-06 14:02:00,72.0,40.0,-100.00,ESE,112,4.0,10.0,30,-99.99,,,0.00,1012.280029,,2013-06-06 20:02:00,
2013-06-06 14:33:00,73.0,41.0,-100.00,NE,52,7.0,16.0,31,-99.99,,,0.00,918.140015,,2013-06-06 20:33:00,
2013-06-06 14:42:00,73.0,41.0,-100.00,NE,52,7.0,16.0,31,-99.99,,,0.00,918.140015,,2013-06-06 20:42:00,
2013-06-06 14:53:00,73.0,41.0,-100.00,NE,52,7.0,16.0,31,-99.99,,,0.00,918.140015,,2013-06-06 20:53:00,
2013-06-06 15:03:00,73.0,41.0,-100.00,NE,52,7.0,16.0,31,-99.99,,,0.00,918.140015,,2013-06-06 21:03:00,
2013-06-06 15:12:00,73.0,41.0,-100.00,NE,52,7.0,16.0,31,-99.99,,,0.00,918.140015,,2013-06-06 21:12:00,
2013-06-06 15:43:00,74.0,41.0,-100.00,North,2,5.0,11.0,29,-99.99,,,0.00,925.109985,,2013-06-06 21:43:00,
2013-06-06 15:53:00,74.0,41.0,-100.00,North,2,5.0,11.0,29,-99.99,,,0.00,925.109985,,2013-06-06 21:53:00,
2013-06-06 16:02:00,74.0,41.0,-100.00,North,2,5.0,11.0,29,-99.99,,,0.00,925.109985,,2013-06-06 22:02:00,
2013-06-06 16:12:00,74.0,41.0,-100.00,North,2,5.0,11.0,29,-99.99,,,0.00,925.109985,,2013-06-06 22:12:00,
2013-06-06 16:43:00,75.0,42.0,-100.00,North,11,6.0,14.0,30,-99.99,,,0.00,812.030029,,2013-06-06 22:43:00,
2013-06-06 16:53:00,75.0,42.0,-100.00,North,11,6.0,14.0,30,-99.99,,,0.00,812.030029,,2013-06-06 22:53:00,
2013-06-06 17:02:00,75.0,42.0,-100.00,North,11,6.0,14.0,30,-99.99,,,0.00,812.030029,,2013-06-06 23:02:00,
2013-06-06 17:12:00,75.0,42.0,-100.00,North,11,6.0,14.0,30,-99.99,,,0.00,812.030029,,2013-06-06 23:12:00,
2013-06-06 17:42:00,74.0,43.0,-100.00,NNE,17,7.0,10.0,31,-99.99,,,0.00,472.320007,,2013-06-06 23:42:00,
2013-06-06 17:52:00,74.0,43.0,-100.00,NNE,17,7.0,10.0,31,-99.99,,,0.00,472.320007,,2013-06-06 23:52:00,
2013-06-06 18:02:00,74.0,43.0,-100.00,NNE,17,7.0,10.0,31,-99.99,,,0.00,472.320007,,2013-06-07 00:02:00,
2013-06-06 18:12:00,74.0,43.0,-100.00,NNE,17,7.0,10.0,31,-99.99,,,0.00,472.320007,,2013-06-07 00:12:00,
2013-06-06 19:32:00,75.0,44.0,-100.00,ENE,68,2.0,4.0,32,-99.99,,,0.00,316.820007,,2013-06-07 01:32:00,
2013-06-06 19:42:00,75.0,44.0,-100.00,ENE,68,2.0,4.0,32,-99.99,,,0.00,316.820007,,2013-06-07 01:42:00,
2013-06-06 19:52:00,75.0,44.0,-100.00,ENE,68,2.0,4.0,32,-99.99,,,0.00,316.820007,,2013-06-07 01:52:00,
2013-06-06 20:02:00,75.0,44.0,-100.00,ENE,68,2.0,4.0,32,-99.99,,,0.00,316.820007,,2013-06-07 02:02:00,
2013-06-06 20:12:00,75.0,44.0,-100.00,ENE,68,2.0,4.0,32,-99.99,,,0.00,316.820007,,2013-06-07 02:12:00,
2013-06-06 20:32:00,69.0,51.0,-100.00,WNW,298,5.0,7.0,52,-99.99,,,0.00,65.900002,,2013-06-07 02:32:00,
2013-06-06 20:42:00,69.0,51.0,-100.00,WNW,298,5.0,7.0,52,-99.99,,,0.00,65.900002,,2013-06-07 02:42:00,
2013-06-06 20:52:00,69.0,51.0,-100.00,WNW,298,5.0,7.0,52,-99.99,,,0.00,65.900002,,2013-06-07 02:52:00,
2013-06-06 21:02:00,69.0,51.0,-100.00,WNW,298,5.0,7.0,52,-99.99,,,0.00,65.900002,,2013-06-07 03:02:00,
2013-06-06 21:12:00,69.0,51.0,-100.00,WNW,298,5.0,7.0,52,-99.99,,,0.00,65.900002,,2013-06-07 03:12:00,
2013-06-06 21:33:00,64.0,54.0,-100.00,WNW,282,4.0,5.0,69,-99.99,,,0.00,12.200000,,2013-06-07 03:33:00,
2013-06-06 21:43:00,64.0,54.0,-100.00,WNW,282,4.0,5.0,69,-99.99,,,0.00,12.200000,,2013-06-07 03:43:00,
2013-06-06 21:53:00,64.0,54.0,-100.00,WNW,282,4.0,5.0,69,-99.99,,,0.00,12.200000,,2013-06-07 03:53:00,
2013-06-06 22:03:00,64.0,54.0,-100.00,WNW,282,4.0,5.0,69,-99.99,,,0.00,12.200000,,2013-06-07 04:03:00,
2013-06-06 22:12:00,64.0,54.0,-100.00,WNW,282,4.0,5.0,69,-99.99,,,0.00,12.200000,,2013-06-07 04:12:00,
2013-06-06 22:33:00,59.0,49.0,-100.00,SSE,148,3.0,4.0,68,-99.99,,,0.00,0.120000,,2013-06-07 04:33:00,
2013-06-06 22:42:00,59.0,49.0,-100.00,SSE,148,3.0,4.0,68,-99.99,,,0.00,0.120000,,2013-06-07 04:42:00,
2013-06-06 22:53:00,59.0,49.0,-100.00,SSE,148,3.0,4.0,68,-99.99,,,0.00,0.120000,,2013-06-07 04:53:00,
2013-06-06 23:02:00,59.0,49.0,-100.00,SSE,148,3.0,4.0,68,-99.99,,,0.00,0.120000,,2013-06-07 05:02:00,
2013-06-06 23:12:00,59.0,49.0,-100.00,SSE,148,3.0,4.0,68,-99.99,,,0.00,0.120000,,2013-06-07 05:12:00,
2013-06-06 23:32:00,53.0,50.0,-100.00,SW,228,5.0,7.0,87,-99.99,,,0.00,0.120000,,2013-06-07 05:32:00,
2013-06-06 23:42:00,53.0,50.0,-100.00,SW,228,5.0,7.0,87,-99.99,,,0.00,0.120000,,2013-06-07 05:42:00,
2013-06-06 23:52:00,53.0,50.0,-100.00,SW,228,5.0,7.0,87,-99.99,,,0.00,0.120000,,2013-06-07 05:52:00,